Klamath Falls, OR

6:07 AM PST on February 20, 2017 (GMT -0800)
Klamath Falls International

Weather History for KLMT - September, 2013

Change the Weather History Date:

Friday, September 13, 2013

  Actual Average Record
Temperature  
Mean Temperature 70 °F 58 °F  
Max Temperature 89 °F 77 °F 92 °F (1995)
Min Temperature 51 °F 40 °F 29 °F (1970)
Degree Days  
Heating Degree Days 0 7  
Month to date heating degree days 27 74  
Since 1 July heating degree days 95 193  
Cooling Degree Days 5 0  
Month to date cooling degree days 14 9  
Year to date cooling degree days 282 168  
Growing Degree Days 21 (Base 50)    
Moisture  
Dew Point 46 °F    
Average Humidity 46    
Maximum Humidity 93    
Minimum Humidity 17    
Precipitation  
Precipitation 0.00 in 0.02 in 0.38 in (2001)
Month to date precipitation T 0.25  
Year to date precipitation 4.79 9.99  
Sea Level Pressure  
Sea Level Pressure 29.85 in    
Wind  
Wind Speed 5 mph (NW)    
Max Wind Speed 17 mph    
Max Gust Speed 21 mph    
Visibility 10 miles    
Events      
T = Trace of Precipitation, MM = Missing Value Source: NWS Daily Summary

Daily Weather History Graph

Daily Weather History Graph

Search for Another Location

Airport or City:

Trip Planner

Search our weather history database for the weather conditions in past years. The results will help you decide how hot, cold, wet, or windy it might be!

Date:

Astronomy

Sep. 13, 2013 Rise Set
Actual Time 6:45 AM PDT 7:19 PM PDT
Civil Twilight 6:17 AM PDT 7:47 PM PDT
Nautical Twilight 5:43 AM PDT 8:20 PM PDT
Astronomical Twilight 5:09 AM PDT 8:54 PM PDT
Moon 3:18 PM PDT (9/13) 12:15 AM PDT (9/13)
Length of Visible Light 13h 30m
Length of Day
12h 34m
Waxing Gibbous, 62% of the Moon is Illuminated
Sep 13
Waxing Gibbous
Sep 19
Full
Sep 26
Last Quarter
Oct 4
New
Oct 11
First Quarter

Hourly Weather History & Observations

Time (PDT) Temp. Dew Point Humidity Pressure Visibility Wind Dir Wind Speed Gust Speed Precip Events Conditions
12:53 AM 72.0 °F 51.1 °F 48% 29.88 in 10.0 mi NNW 6.9 mph - N/A   Clear
1:53 AM 69.1 °F 54.0 °F 58% 29.89 in 10.0 mi NW 9.2 mph - N/A   Clear
2:53 AM 60.1 °F 53.1 °F 78% 29.89 in 10.0 mi SSE 3.5 mph - N/A   Mostly Cloudy
3:53 AM 62.1 °F 52.0 °F 70% 29.89 in 10.0 mi Calm Calm - N/A   Mostly Cloudy
4:53 AM 57.9 °F 50.0 °F 75% 29.89 in 10.0 mi Calm Calm - N/A   Mostly Cloudy
5:53 AM 54.0 °F 50.0 °F 86% 29.91 in 10.0 mi Calm Calm - N/A   Scattered Clouds
6:53 AM 54.0 °F 51.1 °F 90% 29.92 in 10.0 mi Calm Calm - N/A   Clear
7:53 AM 57.9 °F 51.1 °F 78% 29.93 in 10.0 mi Calm Calm - N/A   Partly Cloudy
8:53 AM 66.9 °F 53.1 °F 61% 29.91 in 10.0 mi Calm Calm - N/A   Clear
9:53 AM 75.9 °F 46.9 °F 36% 29.89 in 10.0 mi NNW 9.2 mph - N/A   Clear
10:53 AM 79.0 °F 44.1 °F 29% 29.87 in 10.0 mi NNW 6.9 mph - N/A   Clear
11:53 AM 82.9 °F 41.0 °F 23% 29.85 in 10.0 mi Variable 3.5 mph - N/A   Clear
12:53 PM 84.0 °F 39.9 °F 21% 29.83 in 10.0 mi Variable 3.5 mph - N/A   Clear
1:53 PM 86.0 °F 39.9 °F 20% 29.81 in 10.0 mi Variable 3.5 mph - N/A   Clear
2:53 PM 88.0 °F 37.0 °F 16% 29.80 in 10.0 mi NW 9.2 mph - N/A   Clear
3:53 PM 88.0 °F 39.0 °F 18% 29.78 in 10.0 mi Variable 4.6 mph - N/A   Clear
4:53 PM 88.0 °F 39.9 °F 18% 29.77 in 10.0 mi NNW 15.0 mph - N/A   Partly Cloudy
5:53 PM 86.0 °F 39.0 °F 19% 29.77 in 10.0 mi NNW 15.0 mph - N/A   Clear
6:53 PM 82.0 °F 43.0 °F 25% 29.78 in 10.0 mi NNW 11.5 mph - N/A   Clear
7:53 PM 75.9 °F 48.0 °F 37% 29.80 in 10.0 mi NNW 10.4 mph - N/A   Clear
8:53 PM 71.1 °F 50.0 °F 47% 29.81 in 10.0 mi NNW 5.8 mph - N/A   Clear
9:53 PM 66.0 °F 45.0 °F 47% 29.81 in 10.0 mi NNW 4.6 mph - N/A   Clear
10:53 PM 66.0 °F 37.9 °F 36% 29.81 in 10.0 mi Calm Calm - N/A   Clear
11:53 PM 59.0 °F 44.1 °F 58% 29.83 in 10.0 mi WSW 3.5 mph - N/A   Clear